Previsão horária em Abano Terme

Hoje, 10 Abril, Sábado

Tempo Temperatura Precipitação Vento Pressão Humidade
00:00 +10°C° 0 mm 1 m/s 766 mmHg 68%
01:00 +9°C° 0 mm 1 m/s 766 mmHg 70%
02:00 +9°C° 0 mm 1 m/s 766 mmHg 71%
03:00 +9°C° 0 mm 1 m/s 765 mmHg 73%
04:00 +9°C° 0 mm 1 m/s 765 mmHg 74%
05:00 +9°C° 0 mm 1 m/s 765 mmHg 74%
06:00 +9°C° 0 mm 1 m/s 765 mmHg 73%
07:00 +9°C° 0 mm 1 m/s 765 mmHg 72%
08:00 +11°C° 0 mm 1 m/s 765 mmHg 66%
09:00 +12°C° 0 mm 1 m/s 765 mmHg 61%
10:00 +14°C° 0 mm 1 m/s 765 mmHg 55%
11:00 +15°C° 0 mm 1 m/s 765 mmHg 50%
12:00 +16°C° 0 mm 2 m/s 765 mmHg 46%
13:00 +17°C° 0 mm 3 m/s 764 mmHg 41%
14:00 +17°C° 0 mm 3 m/s 764 mmHg 44%
15:00 +17°C° 0 mm 3 m/s 764 mmHg 46%
16:00 +16°C° 0 mm 3 m/s 764 mmHg 49%
17:00 +14°C° 0 mm 3 m/s 764 mmHg 55%
18:00 +13°C° 0 mm 3 m/s 764 mmHg 61%
19:00 +13°C° 0 mm 2 m/s 764 mmHg 66%
20:00 +13°C° 0.1 mm 2 m/s 764 mmHg 71%
21:00 +13°C° 0.1 mm 2 m/s 764 mmHg 75%
22:00 +12°C° 0.1 mm 1 m/s 764 mmHg 79%
23:00 +12°C° 0.1 mm 2 m/s 764 mmHg 82%

Amanhã, 11 Abril, Domingo

Tempo Temperatura Precipitação Vento Pressão Humidade
00:00 +12°C° 0.1 mm 2 m/s 763 mmHg 84%
01:00 +12°C° 0.1 mm 2 m/s 763 mmHg 87%
02:00 +10°C° 2.5 mm 2 m/s 763 mmHg 90%
03:00 +10°C° 2.5 mm 2 m/s 763 mmHg 93%
04:00 +10°C° 2.5 mm 2 m/s 762 mmHg 96%
05:00 +10°C° 2.1 mm 3 m/s 762 mmHg 96%
06:00 +10°C° 2.1 mm 3 m/s 763 mmHg 95%
07:00 +10°C° 2.1 mm 3 m/s 763 mmHg 95%
08:00 +10°C° 0.6 mm 3 m/s 763 mmHg 94%
09:00 +10°C° 0.6 mm 3 m/s 763 mmHg 93%
10:00 +10°C° 0.6 mm 3 m/s 763 mmHg 92%
11:00 +10°C° 0.8 mm 3 m/s 763 mmHg 92%
12:00 +10°C° 0.8 mm 3 m/s 763 mmHg 92%
13:00 +10°C° 0.8 mm 3 m/s 763 mmHg 93%
14:00 +10°C° 0.4 mm 3 m/s 763 mmHg 92%
15:00 +10°C° 0.4 mm 3 m/s 763 mmHg 92%
16:00 +10°C° 0.4 mm 3 m/s 762 mmHg 91%
17:00 +10°C° 0.1 mm 3 m/s 763 mmHg 92%
18:00 +10°C° 0.1 mm 3 m/s 763 mmHg 93%
19:00 +10°C° 0.1 mm 3 m/s 763 mmHg 93%
20:00 +10°C° 0 mm 3 m/s 763 mmHg 93%
21:00 +10°C° 0 mm 2 m/s 763 mmHg 92%
22:00 +10°C° 0 mm 2 m/s 763 mmHg 92%
23:00 +10°C° 0 mm 2 m/s 763 mmHg 92%

Depois de amanhã, 12 Abril, Segunda-feira

Tempo Temperatura Precipitação Vento Pressão Humidade
00:00 +10°C° 0 mm 2 m/s 762 mmHg 91%
01:00 +10°C° 0 mm 2 m/s 762 mmHg 91%
02:00 +10°C° 0.7 mm 2 m/s 762 mmHg 92%
03:00 +10°C° 0.7 mm 2 m/s 761 mmHg 93%
04:00 +10°C° 0.7 mm 2 m/s 761 mmHg 94%
05:00 +10°C° 1.2 mm 2 m/s 761 mmHg 95%
06:00 +10°C° 1.2 mm 2 m/s 761 mmHg 95%
07:00 +10°C° 1.2 mm 2 m/s 761 mmHg 96%
08:00 +10°C° 1.4 mm 2 m/s 760 mmHg 95%
09:00 +12°C° 1.4 mm 2 m/s 760 mmHg 94%
10:00 +12°C° 1.4 mm 2 m/s 760 mmHg 93%
11:00 +12°C° 0.9 mm 3 m/s 760 mmHg 91%
12:00 +13°C° 0.9 mm 3 m/s 759 mmHg 88%
13:00 +13°C° 0.9 mm 3 m/s 759 mmHg 86%
14:00 +13°C° 3.6 mm 3 m/s 759 mmHg 89%
15:00 +13°C° 3.6 mm 2 m/s 758 mmHg 92%
16:00 +13°C° 3.6 mm 2 m/s 758 mmHg 95%
17:00 +12°C° 4.4 mm 2 m/s 758 mmHg 95%
18:00 +11°C° 4.4 mm 3 m/s 758 mmHg 95%
19:00 +11°C° 4.4 mm 3 m/s 758 mmHg 95%
20:00 +10°C° 1 mm 2 m/s 758 mmHg 95%
21:00 +10°C° 1 mm 2 m/s 758 mmHg 95%
22:00 +11°C° 1 mm 1 m/s 759 mmHg 95%
23:00 +11°C° 0.5 mm 1 m/s 759 mmHg 94%

13 Abril, Terça-feira

Tempo Temperatura Precipitação Vento Pressão Humidade
00:00 +10°C° 0.5 mm 1 m/s 759 mmHg 94%
01:00 +9°C° 0.5 mm 2 m/s 759 mmHg 93%
02:00 +9°C° 0.7 mm 2 m/s 759 mmHg 92%
03:00 +8°C° 0.7 mm 3 m/s 758 mmHg 92%
04:00 +7°C° 0.7 mm 3 m/s 758 mmHg 91%
05:00 +7°C° 0.5 mm 3 m/s 759 mmHg 90%
06:00 +7°C° 0.5 mm 3 m/s 759 mmHg 90%
07:00 +5°C° 0.5 mm 3 m/s 759 mmHg 89%
08:00 +5°C° 0.8 mm 4 m/s 760 mmHg 89%
09:00 +5°C° 0.8 mm 4 m/s 761 mmHg 89%
10:00 +5°C° 0.8 mm 5 m/s 761 mmHg 89%
11:00 +5°C° 0.3 mm 4 m/s 762 mmHg 88%
12:00 +5°C° 0.3 mm 3 m/s 762 mmHg 87%
13:00 +7°C° 0.3 mm 3 m/s 763 mmHg 86%
14:00 +7°C° 0.5 mm 3 m/s 763 mmHg 86%
15:00 +7°C° 0.5 mm 3 m/s 763 mmHg 87%
16:00 +7°C° 0.5 mm 3 m/s 763 mmHg 87%
17:00 +7°C° 0.2 mm 2 m/s 764 mmHg 88%
18:00 +7°C° 0.2 mm 2 m/s 764 mmHg 88%
19:00 +8°C° 0.2 mm 1 m/s 764 mmHg 89%
20:00 +8°C° 0 mm 1 m/s 765 mmHg 89%
21:00 +8°C° 0 mm 1 m/s 765 mmHg 90%
22:00 +6°C° 0 mm 2 m/s 766 mmHg 90%
23:00 +6°C° 0 mm 2 m/s 766 mmHg 91%

14 Abril, Quarta-feira

Tempo Temperatura Precipitação Vento Pressão Humidade
00:00 +6°C° 0 mm 2 m/s 766 mmHg 92%
01:00 +6°C° 0 mm 2 m/s 766 mmHg 92%
02:00 +6°C° 0 mm 2 m/s 766 mmHg 92%
03:00 +6°C° 0 mm 2 m/s 766 mmHg 91%
04:00 +5°C° 0 mm 2 m/s 766 mmHg 91%
05:00 +6°C° 0 mm 2 m/s 766 mmHg 88%
06:00 +6°C° 0 mm 2 m/s 766 mmHg 85%
07:00 +7°C° 0 mm 1 m/s 766 mmHg 83%
08:00 +8°C° 0 mm 1 m/s 766 mmHg 77%
09:00 +9°C° 0 mm 1 m/s 766 mmHg 71%
10:00 +10°C° 0 mm 2 m/s 766 mmHg 65%
11:00 +11°C° 0.1 mm 1 m/s 766 mmHg 60%
12:00 +12°C° 0.1 mm 1 m/s 765 mmHg 56%
13:00 +13°C° 0.1 mm 1 m/s 765 mmHg 51%
14:00 +13°C° 0.1 mm 2 m/s 765 mmHg 51%
15:00 +13°C° 0.1 mm 2 m/s 764 mmHg 52%
16:00 +13°C° 0.1 mm 2 m/s 764 mmHg 52%
17:00 +12°C° 0 mm 2 m/s 764 mmHg 60%
18:00 +10°C° 0 mm 2 m/s 764 mmHg 68%
19:00 +8°C° 0 mm 2 m/s 764 mmHg 76%
20:00 +8°C° 0.3 mm 2 m/s 765 mmHg 77%
21:00 +8°C° 0.3 mm 2 m/s 765 mmHg 78%
22:00 +8°C° 0.3 mm 1 m/s 766 mmHg 79%
23:00 +7°C° 0.1 mm 2 m/s 766 mmHg 82%

15 Abril, Quinta-feira

Tempo Temperatura Precipitação Vento Pressão Humidade
00:00 +7°C° 0.1 mm 2 m/s 766 mmHg 84%
01:00 +5°C° 0.1 mm 3 m/s 766 mmHg 87%
02:00 +5°C° 0.1 mm 3 m/s 766 mmHg 87%
03:00 +5°C° 0.1 mm 3 m/s 766 mmHg 87%
04:00 +5°C° 0.1 mm 2 m/s 766 mmHg 87%
05:00 +6°C° 0 mm 2 m/s 767 mmHg 85%
06:00 +6°C° 0 mm 2 m/s 767 mmHg 83%
07:00 +8°C° 0 mm 1 m/s 767 mmHg 81%
08:00 +9°C° 0.1 mm 1 m/s 767 mmHg 75%
09:00 +10°C° 0.1 mm 1 m/s 767 mmHg 68%
10:00 +11°C° 0.1 mm 1 m/s 767 mmHg 62%
11:00 +12°C° 0.2 mm 2 m/s 767 mmHg 59%
12:00 +13°C° 0.2 mm 2 m/s 766 mmHg 56%
13:00 +13°C° 0.2 mm 2 m/s 766 mmHg 54%
14:00 +13°C° 0.2 mm 2 m/s 766 mmHg 53%
15:00 +13°C° 0.2 mm 2 m/s 765 mmHg 53%
16:00 +13°C° 0.2 mm 2 m/s 765 mmHg 53%
17:00 +12°C° 0 mm 2 m/s 765 mmHg 59%
18:00 +10°C° 0 mm 2 m/s 765 mmHg 65%
19:00 +9°C° 0 mm 2 m/s 765 mmHg 71%
20:00 +8°C° 0 mm 2 m/s 765 mmHg 72%
21:00 +9°C° 0 mm 1 m/s 766 mmHg 74%
22:00 +8°C° 0 mm 1 m/s 766 mmHg 76%
23:00 +8°C° 0 mm 1 m/s 766 mmHg 76%
Mostrar mais